"Period start","avg(HW err(1)/warn(2) (#))","avg(Visibility (m))","avg(Weather code (#))","avg(Precip intensity (mm/h))","min(HW err(1)/warn(2) (#))","max(HW err(1)/warn(2) (#))","std(HW err(1)/warn(2) (#))","med(HW err(1)/warn(2) (#))","min(Visibility (m))","max(Visibility (m))","std(Visibility (m))","med(Visibility (m))","min(Weather code (#))","max(Weather code (#))","std(Weather code (#))","med(Weather code (#))","min(Precip intensity (mm/h))","max(Precip intensity (mm/h))","std(Precip intensity (mm/h))","med(Precip intensity (mm/h))"
2014-05-26 00:00:00,2,24155,20,0.00,2,2,0,2,3123,50000,16398,22528,20,20,0,20,0.00,0.00,0.00,0.00
2014-05-26 00:10:00,2,25172,20,0.00,2,2,0,2,4520,50000,18479,15614,20,20,0,20,0.00,0.00,0.00,0.00
2014-05-26 00:20:00,2,26076,20,0.00,2,2,0,2,5662,48924,16799,29070,20,20,0,20,0.00,0.00,0.00,0.00
2014-05-26 00:30:00,2,11647,20,0.00,2,2,0,2,2257,21027,6899,12024,20,20,0,20,0.00,0.00,0.00,0.00
2014-05-26 00:40:00,2,6259,20,0.00,2,2,0,2,2723,11536,2888,5706,20,20,0,20,0.00,0.00,0.00,0.00
2014-05-26 00:50:00,2,3244,12,0.00,2,2,0,2,1433,7475,2033,2182,10,20,4,10,0.00,0.00,0.00,0.00
2014-05-26 01:00:00,2,2462,10,0.00,2,2,0,2,1540,3257,532,2624,10,10,0,10,0.00,0.00,0.00,0.00
2014-05-26 01:10:00,2,4228,10,0.00,2,2,0,2,1716,9812,2269,3386,10,10,0,10,0.00,0.00,0.00,0.00
2014-05-26 01:20:00,2,3520,10,0.00,2,2,0,2,1927,5868,1307,3346,10,10,0,10,0.00,0.00,0.00,0.00
2014-05-26 01:30:00,2,8002,10,0.00,2,2,0,2,3836,16165,3464,7604,10,10,0,10,0.00,0.00,0.00,0.00
2014-05-26 01:40:00,2,3195,10,0.00,2,2,0,2,1836,5005,942,3047,10,10,0,10,0.00,0.00,0.00,0.00
2014-05-26 01:50:00,2,4079,10,0.00,2,2,0,2,2221,8782,2055,3230,10,10,0,10,0.00,0.00,0.00,0.00
2014-05-26 02:00:00,2,6754,10,0.00,2,2,0,2,1849,17731,5608,2888,10,10,0,10,0.00,0.00,0.00,0.00
2014-05-26 02:10:00,2,3133,10,0.00,2,2,0,2,2323,4749,798,2820,10,10,0,10,0.00,0.00,0.00,0.00
2014-05-26 02:20:00,2,2165,10,0.00,2,2,0,2,1234,5037,1043,1837,10,10,0,10,0.00,0.00,0.00,0.00
2014-05-26 02:30:00,2,2587,10,0.00,2,2,0,2,1565,6404,1390,2088,10,10,0,10,0.00,0.00,0.00,0.00
2014-05-26 02:40:00,2,6270,10,0.00,2,2,0,2,3200,8930,1860,6702,10,10,0,10,0.00,0.00,0.00,0.00
2014-05-26 02:50:00,2,5170,10,0.00,2,2,0,2,3287,7580,1310,4772,10,10,0,10,0.00,0.00,0.00,0.00
2014-05-26 03:00:00,2,17777,10,0.00,2,2,0,2,7654,29621,7933,18492,10,10,0,10,0.00,0.00,0.00,0.00
2014-05-26 03:10:00,2,30023,1,0.00,2,2,0,2,25180,37674,4020,28571,0,10,3,0,0.00,0.00,0.00,0.00
2014-05-26 03:20:00,2,18803,0,0.00,2,2,0,2,10443,24448,4570,20036,0,0,0,0,0.00,0.00,0.00,0.00
2014-05-26 03:30:00,2,28190,0,0.00,2,2,0,2,16150,42511,8072,27625,0,0,0,0,0.00,0.00,0.00,0.00
2014-05-26 03:40:00,2,16603,0,0.00,2,2,0,2,10713,26961,4670,16712,0,0,0,0,0.00,0.00,0.00,0.00
2014-05-26 03:50:00,2,13187,0,0.00,2,2,0,2,8691,17229,3309,13016,0,0,0,0,0.00,0.00,0.00,0.00
2014-05-26 04:00:00,2,17560,0,0.00,2,2,0,2,12507,23507,2914,18306,0,0,0,0,0.00,0.00,0.00,0.00
2014-05-26 04:10:00,2,27164,0,0.00,2,2,0,2,12609,46500,10653,26764,0,0,0,0,0.00,0.00,0.00,0.00
2014-05-26 04:20:00,2,22148,0,0.00,2,2,0,2,10676,50000,10996,20034,0,0,0,0,0.00,0.00,0.00,0.00
2014-05-26 04:30:00,2,13219,0,0.00,2,2,0,2,11063,17755,1901,12762,0,0,0,0,0.00,0.00,0.00,0.00
2014-05-26 04:40:00,2,8796,2,0.00,2,2,0,2,2362,15720,4779,9366,0,10,4,0,0.00,0.00,0.00,0.00
2014-05-26 04:50:00,2,7376,10,0.00,2,2,0,2,3318,10198,2154,7615,10,10,0,10,0.00,0.00,0.00,0.00
2014-05-26 05:00:00,2,9237,10,0.00,2,2,0,2,6650,11660,1824,9376,10,10,0,10,0.00,0.00,0.00,0.00
2014-05-26 05:10:00,2,20738,9,0.00,2,2,0,2,7852,36427,9803,19576,0,10,3,10,0.00,0.00,0.00,0.00
2014-05-26 05:20:00,2,22256,0,0.00,2,2,0,2,11291,43760,9509,20735,0,0,0,0,0.00,0.00,0.00,0.00
2014-05-26 05:30:00,2,30923,0,0.00,2,2,0,2,13005,43342,11026,35390,0,0,0,0,0.00,0.00,0.00,0.00
2014-05-26 05:40:00,2,39227,0,0.00,2,2,0,2,30000,49301,5822,37750,0,0,0,0,0.00,0.00,0.00,0.00
2014-05-26 05:50:00,2,31346,0,0.00,2,2,0,2,17128,50000,12828,27380,0,0,0,0,0.00,0.00,0.00,0.00
2014-05-26 06:00:00,2,14376,0,0.00,2,2,0,2,10400,20721,3107,13494,0,0,0,0,0.00,0.00,0.00,0.00
2014-05-26 06:10:00,2,10227,1,0.00,2,2,0,2,4151,16204,4529,10812,0,10,3,0,0.00,0.00,0.00,0.00
2014-05-26 06:20:00,2,12144,10,0.00,2,2,0,2,2939,25016,7111,10394,10,10,0,10,0.00,0.00,0.00,0.00
2014-05-26 06:30:00,2,7500,9,0.00,2,2,0,2,2151,19473,5224,5979,0,10,3,10,0.00,0.00,0.00,0.00
2014-05-26 06:40:00,2,24533,9,0.00,2,2,0,2,12781,34767,6184,24726,0,10,3,10,0.00,0.00,0.00,0.00
2014-05-26 06:50:00,2,17916,0,0.00,2,2,0,2,10626,23096,4025,17854,0,0,0,0,0.00,0.00,0.00,0.00
2014-05-26 07:00:00,2,18768,0,0.00,2,2,0,2,8475,31645,7361,16794,0,0,0,0,0.00,0.00,0.00,0.00
2014-05-26 07:10:00,2,24769,0,0.00,2,2,0,2,9215,37616,10572,23888,0,0,0,0,0.00,0.00,0.00,0.00
2014-05-26 07:20:00,2,16177,0,0.00,2,2,0,2,5766,31378,9903,12244,0,0,0,0,0.00,0.00,0.00,0.00
2014-05-26 07:30:00,2,11730,0,0.00,2,2,0,2,7765,17589,3186,10967,0,0,0,0,0.00,0.00,0.00,0.00
2014-05-26 07:40:00,2,20145,0,0.00,2,2,0,2,11677,31551,6580,18154,0,0,0,0,0.00,0.00,0.00,0.00
2014-05-26 07:50:00,2,24051,0,0.00,2,2,0,2,13529,31083,6103,25966,0,0,0,0,0.00,0.00,0.00,0.00
2014-05-26 08:00:00,2,42252,0,0.00,2,2,0,2,32645,49638,5030,41794,0,0,0,0,0.00,0.00,0.00,0.00
2014-05-26 08:10:00,2,45587,0,0.00,2,2,0,2,41792,48385,2154,45963,0,0,0,0,0.00,0.00,0.00,0.00
2014-05-26 08:20:00,2,23151,0,0.00,2,2,0,2,16004,39837,7465,20333,0,0,0,0,0.00,0.00,0.00,0.00
2014-05-26 08:30:00,2,19733,0,0.00,2,2,0,2,14231,25130,3742,18473,0,0,0,0,0.00,0.00,0.00,0.00
2014-05-26 08:40:00,2,21960,0,0.00,2,2,0,2,12879,30872,6008,23026,0,0,0,0,0.00,0.00,0.00,0.00
2014-05-26 08:50:00,2,29507,0,0.00,2,2,0,2,22030,39149,5332,29252,0,0,0,0,0.00,0.00,0.00,0.00
2014-05-26 09:00:00,2,39728,0,0.00,2,2,0,2,30137,48428,5738,39764,0,0,0,0,0.00,0.00,0.00,0.00
2014-05-26 09:10:00,2,43055,0,0.00,2,2,0,2,30566,50000,5933,45810,0,0,0,0,0.00,0.00,0.00,0.00
2014-05-26 09:20:00,2,18892,0,0.00,2,2,0,2,8456,31224,7789,19825,0,0,0,0,0.00,0.00,0.00,0.00
2014-05-26 09:30:00,2,31156,0,0.00,2,2,0,2,20735,44599,6671,29574,0,0,0,0,0.00,0.00,0.00,0.00
2014-05-26 09:40:00,2,32984,0,0.00,2,2,0,2,22598,40416,5582,34176,0,0,0,0,0.00,0.00,0.00,0.00
2014-05-26 09:50:00,2,34526,0,0.00,2,2,0,2,21686,42542,6335,36920,0,0,0,0,0.00,0.00,0.00,0.00
2014-05-26 10:00:00,2,39619,0,0.00,2,2,0,2,26406,49199,6713,38227,0,0,0,0,0.00,0.00,0.00,0.00
2014-05-26 10:10:00,2,34952,0,0.00,2,2,0,2,24120,47190,7112,33890,0,0,0,0,0.00,0.00,0.00,0.00
2014-05-26 10:20:00,2,43044,0,0.00,2,2,0,2,34176,48370,4378,44427,0,0,0,0,0.00,0.00,0.00,0.00
2014-05-26 10:30:00,2,43578,0,0.00,2,2,0,2,37565,50000,5318,42476,0,0,0,0,0.00,0.00,0.00,0.00
2014-05-26 10:40:00,2,38836,0,0.00,2,2,0,2,30909,46278,4706,38780,0,0,0,0,0.00,0.00,0.00,0.00
2014-05-26 10:50:00,2,46258,0,0.00,2,2,0,2,41107,50000,3310,46564,0,0,0,0,0.00,0.00,0.00,0.00
2014-05-26 11:00:00,2,43688,0,0.00,2,2,0,2,38977,48623,3019,44180,0,0,0,0,0.00,0.00,0.00,0.00
2014-05-26 11:10:00,2,48218,0,0.00,2,2,0,2,42264,50000,2656,49998,0,0,0,0,0.00,0.00,0.00,0.00
2014-05-26 11:20:00,2,46653,0,0.00,2,2,0,2,37878,50000,3786,47816,0,0,0,0,0.00,0.00,0.00,0.00
2014-05-26 11:30:00,2,47588,0,0.00,2,2,0,2,44180,50000,1931,47892,0,0,0,0,0.00,0.00,0.00,0.00
2014-05-26 11:40:00,2,48740,0,0.00,2,2,0,2,44953,50000,1596,49468,0,0,0,0,0.00,0.00,0.00,0.00
2014-05-26 11:50:00,2,48457,0,0.00,2,2,0,2,43572,50000,1986,49298,0,0,0,0,0.00,0.00,0.00,0.00
2014-05-26 12:00:00,2,48432,0,0.00,2,2,0,2,43883,50000,1816,48820,0,0,0,0,0.00,0.00,0.00,0.00
2014-05-26 12:10:00,2,48502,0,0.00,2,2,0,2,44430,50000,2137,50000,0,0,0,0,0.00,0.00,0.00,0.00
2014-05-26 12:20:00,2,49563,0,0.00,2,2,0,2,47280,50000,809,49976,0,0,0,0,0.00,0.00,0.00,0.00
2014-05-26 12:30:00,2,49809,0,0.00,2,2,0,2,48507,50000,434,50000,0,0,0,0,0.00,0.00,0.00,0.00
2014-05-26 12:40:00,2,49649,0,0.00,2,2,0,2,47314,50000,801,50000,0,0,0,0,0.00,0.00,0.00,0.00
2014-05-26 12:50:00,2,50000,0,0.00,2,2,0,2,50000,50000,0,50000,0,0,0,0,0.00,0.00,0.00,0.00
2014-05-26 13:00:00,2,49786,0,0.00,2,2,0,2,49057,50000,355,50000,0,0,0,0,0.00,0.00,0.00,0.00
2014-05-26 13:10:00,2,49731,0,0.00,2,2,0,2,48664,50000,531,50000,0,0,0,0,0.00,0.00,0.00,0.00
2014-05-26 13:20:00,2,47446,0,0.00,2,2,0,2,40619,50000,3188,48748,0,0,0,0,0.00,0.00,0.00,0.00
2014-05-26 13:30:00,2,21404,0,0.00,2,2,0,2,6693,39845,11370,18661,0,0,0,0,0.00,0.00,0.00,0.00
2014-05-26 13:40:00,2,2194,44,0.83,2,2,0,2,1293,4213,1047,1629,0,71,26,40,0.00,3.60,1.01,0.80
2014-05-26 13:50:00,2,4666,71,0.86,2,2,0,2,1859,8217,2039,3930,71,71,0,71,0.10,2.90,0.80,0.82
2014-05-26 14:00:00,2,2416,71,2.48,2,2,0,2,1625,2917,424,2592,71,71,0,71,0.95,5.60,1.29,2.25
2014-05-26 14:10:00,2,2649,71,1.77,2,2,0,2,2038,3277,337,2710,71,71,0,71,0.95,3.20,0.73,1.50
2014-05-26 14:20:00,2,2298,71,2.10,2,2,0,2,1831,2975,366,2191,71,71,0,71,0.95,3.45,0.74,2.03
2014-05-26 14:30:00,2,10533,71,0.86,2,2,0,2,2553,38413,11647,4755,71,71,0,71,0.00,2.40,0.77,1.00
2014-05-26 14:40:00,2,18831,71,0.14,2,2,0,2,7692,36847,10234,14290,71,71,0,71,0.00,0.70,0.21,0.05
2014-05-26 14:50:00,2,4016,71,1.34,2,2,0,2,1886,7437,1586,3448,71,71,0,71,0.20,3.30,1.01,1.07
2014-05-26 15:00:00,2,3706,71,3.73,2,2,0,2,906,12737,3839,1566,71,71,0,71,0.00,8.85,3.11,3.70
2014-05-26 15:10:00,2,8725,71,0.11,2,2,0,2,5992,15245,3082,7744,71,71,0,71,0.00,0.20,0.07,0.12
2014-05-26 15:20:00,2,8056,71,0.59,2,2,0,2,2464,16776,4641,7616,71,71,0,71,0.00,2.95,0.88,0.15
2014-05-26 15:30:00,2,35661,53,0.01,2,2,0,2,20716,50000,11092,35932,0,77,35,77,0.00,0.05,0.02,0.00
2014-05-26 15:40:00,2,10913,50,1.18,2,2,0,2,2259,43978,13849,3917,0,71,33,71,0.00,3.20,1.10,1.15
2014-05-26 15:50:00,2,3638,71,1.74,2,2,0,2,1757,12779,3157,2446,71,71,0,71,0.05,3.50,1.13,1.60
2014-05-26 16:00:00,2,10219,71,0.30,2,2,0,2,3527,26740,6930,6846,71,71,0,71,0.00,1.10,0.37,0.12
2014-05-26 16:10:00,2,12578,71,0.77,2,2,0,2,1837,27892,8552,11234,71,71,0,71,0.00,3.70,1.26,0.05
2014-05-26 16:20:00,2,2237,71,3.76,2,2,0,2,866,7179,1947,1342,71,71,0,71,0.10,6.85,2.22,4.72
2014-05-26 16:30:00,2,9002,71,5.15,2,2,0,2,815,40289,12591,1848,71,71,0,71,0.00,11.95,4.76,5.62
2014-05-26 16:40:00,2,26766,4,0.00,2,2,0,2,13002,49098,13481,21515,0,40,12,0,0.00,0.00,0.00,0.00
2014-05-26 16:50:00,2,8082,62,0.11,2,2,0,2,4160,25370,5868,6588,41,71,14,71,0.00,0.40,0.11,0.08
2014-05-26 17:00:00,2,2124,71,2.00,2,2,0,2,1483,2788,396,2184,71,71,0,71,0.95,3.60,0.85,1.70
2014-05-26 17:10:00,2,2433,71,4.71,2,2,0,2,1042,9463,2468,1434,71,71,0,71,0.05,10.20,3.29,5.40
2014-05-26 17:20:00,2,9858,71,1.10,2,2,0,2,1138,25779,8152,8580,71,71,0,71,0.00,5.95,1.74,0.30
2014-05-26 17:30:00,2,33319,36,0.00,2,2,0,2,8651,50000,15435,36472,0,71,36,36,0.00,0.00,0.00,0.00
2014-05-26 17:40:00,2,16074,32,0.05,2,2,0,2,4233,33489,10739,13437,0,77,29,40,0.00,0.50,0.15,0.00
2014-05-26 17:50:00,2,40004,65,0.00,2,2,0,2,29663,50000,6881,39998,41,77,16,74,0.00,0.00,0.00,0.00
2014-05-26 18:00:00,2,20185,0,0.00,2,2,0,2,9796,30374,5901,19942,0,0,0,0,0.00,0.00,0.00,0.00
2014-05-26 18:10:00,2,14167,28,0.65,2,2,0,2,1311,33171,11102,12626,0,71,35,0,0.00,3.30,1.25,0.00
2014-05-26 18:20:00,2,1511,71,3.39,2,2,0,2,1074,2070,288,1476,71,71,0,71,0.45,5.90,1.63,3.53
2014-05-26 18:30:00,2,19791,21,0.69,2,2,0,2,1059,33687,11835,24124,0,71,33,0,0.00,6.25,1.86,0.00
2014-05-26 18:40:00,2,12928,16,0.02,2,2,0,2,4178,37164,10252,7550,0,41,20,0,0.00,0.10,0.03,0.00
2014-05-26 18:50:00,2,8007,66,0.06,2,2,0,2,2657,12850,2902,8935,40,77,17,77,0.00,0.30,0.09,0.03
2014-05-26 19:00:00,2,9847,48,0.56,2,2,0,2,1328,21873,8199,7705,10,77,31,71,0.00,3.15,0.96,0.03
2014-05-26 19:10:00,2,25358,5,0.00,2,2,0,2,12819,40107,9712,22652,0,10,5,5,0.00,0.00,0.00,0.00
2014-05-26 19:20:00,2,6281,36,0.35,2,2,0,2,1737,13830,4285,5410,0,71,36,36,0.00,1.30,0.45,0.07
2014-05-26 19:30:00,2,30113,22,0.01,2,2,0,2,3508,50000,15808,32354,10,71,24,10,0.00,0.15,0.05,0.00
2014-05-26 19:40:00,2,25065,13,0.00,2,2,0,2,7633,50000,16507,20300,0,41,18,0,0.00,0.00,0.00,0.00
2014-05-26 19:50:00,2,10839,71,0.00,2,2,0,2,3475,23702,5594,9089,41,77,10,74,0.00,0.00,0.00,0.00
2014-05-26 20:00:00,2,1289,72,2.35,2,2,0,2,903,1680,247,1350,71,77,2,71,0.40,5.85,1.75,1.97
2014-05-26 20:10:00,2,8105,53,0.20,2,2,0,2,1340,32320,9469,2340,10,71,28,71,0.00,0.75,0.24,0.15
2014-05-26 20:20:00,2,36832,7,0.00,2,2,0,2,18217,47094,9223,39010,0,10,5,10,0.00,0.00,0.00,0.00
2014-05-26 20:30:00,2,17590,0,0.00,2,2,0,2,3188,42888,13096,14266,0,0,0,0,0.00,0.00,0.00,0.00
2014-05-26 20:40:00,2,18799,8,0.01,2,2,0,2,3293,50000,17270,12073,0,40,16,0,0.00,0.05,0.02,0.00
2014-05-26 20:50:00,2,2562,65,0.68,2,2,0,2,1115,5546,1229,2541,40,71,12,71,0.00,2.50,0.91,0.17
2014-05-26 21:00:00,2,2632,73,0.34,2,2,0,2,1398,4451,989,2456,71,77,3,71,0.00,0.75,0.33,0.28
2014-05-26 21:10:00,2,2630,71,0.92,2,2,0,2,888,6994,1688,2373,71,71,0,71,0.05,4.35,1.37,0.30
2014-05-26 21:20:00,2,25538,31,0.00,2,2,0,2,3687,43021,13343,23608,0,77,38,0,0.00,0.00,0.00,0.00
2014-05-26 21:30:00,2,41176,0,0.00,2,2,0,2,27625,50000,7821,43434,0,0,0,0,0.00,0.00,0.00,0.00
2014-05-26 21:40:00,2,33783,0,0.00,2,2,0,2,12642,50000,14613,38412,0,0,0,0,0.00,0.00,0.00,0.00
2014-05-26 21:50:00,2,23774,0,0.00,2,2,0,2,9468,35151,8166,25420,0,0,0,0,0.00,0.00,0.00,0.00
2014-05-26 22:00:00,2,3817,34,0.22,2,2,0,2,1453,7511,2082,3232,0,71,29,40,0.00,1.60,0.47,0.03
2014-05-26 22:10:00,2,35001,23,0.00,2,2,0,2,7701,50000,12955,39210,10,77,26,10,0.00,0.00,0.00,0.00
2014-05-26 22:20:00,2,47917,0,0.00,2,2,0,2,40353,50000,3158,49909,0,0,0,0,0.00,0.00,0.00,0.00
2014-05-26 22:30:00,2,32843,0,0.00,2,2,0,2,18029,50000,9405,34133,0,0,0,0,0.00,0.00,0.00,0.00
2014-05-26 22:40:00,2,45642,0,0.00,2,2,0,2,36218,50000,4023,47175,0,0,0,0,0.00,0.00,0.00,0.00
2014-05-26 22:50:00,2,40564,0,0.00,2,2,0,2,23213,47926,8349,43630,0,0,0,0,0.00,0.00,0.00,0.00
2014-05-26 23:00:00,2,20878,0,0.00,2,2,0,2,9551,31522,8236,22022,0,0,0,0,0.00,0.00,0.00,0.00
2014-05-26 23:10:00,2,22114,8,0.01,2,2,0,2,5513,34778,10929,26420,0,40,16,0,0.00,0.05,0.02,0.00
2014-05-26 23:20:00,2,39385,0,0.00,2,2,0,2,33071,47405,3964,39507,0,0,0,0,0.00,0.00,0.00,0.00
2014-05-26 23:30:00,2,44662,0,0.00,2,2,0,2,34987,50000,4891,45936,0,0,0,0,0.00,0.00,0.00,0.00
2014-05-26 23:40:00,2,42927,0,0.00,2,2,0,2,34758,45795,3143,44286,0,0,0,0,0.00,0.00,0.00,0.00
2014-05-26 23:50:00,2,37733,0,0.00,2,2,0,2,33768,41821,2287,37131,0,0,0,0,0.00,0.00,0.00,0.00
